CW2978 Weather Reports


Display with metric or nautical units.
time (UTC)temp
F
wind
direction
speed
MPH
gust
MPH
rain 1hr
in
rain 24hr
in
rain mn
in
humidity
%
barometer
mb
20260508043706 63 159 1.0 6.0 0.00 0.00 0.00 87 1016.0
20260508042634 63 167 2.0 6.0 0.00 0.00 0.00 87 1015.8
20260508041557 63 171 2.0 5.0 0.00 0.00 0.00 86 1015.6
20260508041020 63 190 2.0 8.0 0.00 0.00 0.00 86 1015.6
20260508040520 62 171 1.0 8.0 0.00 0.00 0.00 86 1015.5
20260508040017 62 136 1.0 5.0 0.00 0.00 0.00 86 1015.5
20260508035437 62 119 1.0 5.0 0.00 0.00 0.00 86 1015.4
20260508034913 62 178 1.0 4.0 0.00 0.00 0.00 86 1015.3
20260508034410 62 142 1.0 3.0 0.00 0.00 0.00 86 1015.3
20260508033823 62 136 1.0 3.0 0.00 0.00 0.00 86 1015.2
20260508033315 62 161 1.0 4.0 0.00 0.00 0.00 86 1015.1
20260508032810 62 159 1.0 4.0 0.00 0.00 0.00 85 1015.0
20260508032310 62 178 1.0 6.0 0.00 0.00 0.00 85 1015.0
20260508031708 62 146 1.0 6.0 0.00 0.00 0.00 85 1015.0
20260508030647 62 147 2.0 6.0 0.00 0.00 0.00 85 1014.9
20260508030135 62 161 1.0 5.0 0.00 0.00 0.00 85 1014.7
20260508025626 63 173 2.0 6.0 0.00 0.00 0.00 85 1014.7
20260508025118 63 174 2.0 6.0 0.00 0.00 0.00 85 1014.6
20260508024514 63 190 2.0 9.0 0.00 0.00 0.00 84 1014.5
20260508024011 63 168 2.0 9.0 0.00 0.00 0.00 84 1014.4
20260508023505 63 202 2.0 6.0 0.00 0.00 0.00 84 1014.4
20260508022416 63 159 1.0 6.0 0.00 0.00 0.00 84 1014.3
20260508021912 63 200 2.0 6.0 0.00 0.00 0.00 84 1014.4
20260508021400 63 161 3.0 6.0 0.00 0.00 0.00 84 1014.3
20260508020824 63 148 3.0 5.0 0.00 0.00 0.00 84 1014.2
20260508020310 64 174 3.0 8.0 0.00 0.00 0.00 84 1014.2
20260508015716 64 173 2.0 6.0 0.00 0.00 0.00 84 1014.2
20260508014712 64 184 1.0 6.0 0.00 0.00 0.00 84 1014.2
20260508014134 64 142 1.0 6.0 0.00 0.00 0.00 84 1014.2
20260508013629 64 121 2.0 6.0 0.00 0.00 0.00 84 1014.1
20260508013044 64 157 2.0 6.0 0.00 0.00 0.00 84 1014.2
20260508012519 64 164 2.0 5.0 0.00 0.00 0.00 83 1014.2
20260508012014 64 202 2.0 6.0 0.00 0.00 0.00 84 1014.2
20260508011515 64 227 3.0 5.0 0.00 0.00 0.00 83 1014.2
20260508010922 64 150 3.0 8.0 0.00 0.00 0.00 83 1014.3
20260508005907 64 144 3.0 7.0 0.00 0.00 0.00 83 1014.3
20260508005413 64 180 4.0 6.0 0.00 0.00 0.00 82 1014.1
20260508004821 64 177 4.0 9.0 0.00 0.00 0.00 82 1014.1
20260508004313 64 148 3.0 8.0 0.00 0.00 0.00 81 1014.2
20260508003812 65 188 3.0 8.0 0.00 0.00 0.00 81 1014.2
20260508002145 65 188 3.0 7.0 0.00 0.00 0.00 80 1014.1
20260508001634 65 217 3.0 7.0 0.00 0.00 0.00 80 1014.2
20260508000520 66 196 3.0 7.0 0.00 0.00 0.00 80 1014.2
20260508000014 65 181 3.0 6.0 0.00 0.00 0.00 79 1014.2
20260507235507 66 192 3.0 6.0 0.00 0.00 0.00 79 1014.3
20260507234927 66 205 2.0 6.0 0.00 0.00 0.00 79 1014.3
20260507234409 66 278 2.0 6.0 0.00 0.00 0.00 79 1014.2
20260507232218 66 188 4.0 6.0 0.00 0.00 0.00 78 1014.2
20260507231715 67 192 3.0 9.0 0.00 0.00 0.00 78 1014.2
20260507231215 67 188 3.0 8.0 0.00 0.00 0.00 77 1014.3
20260507230704 67 199 3.0 9.0 0.00 0.00 0.00 77 1014.3
20260507230143 67 243 3.0 9.0 0.00 0.00 0.00 77 1014.4
20260507225630 67 192 3.0 9.0 0.00 0.00 0.00 79 1014.4
20260507225023 66 163 2.0 9.0 0.00 0.00 0.00 76 1014.5
20260507224521 67 187 3.0 7.0 0.00 0.00 0.00 75 1014.5
20260507224014 67 231 4.0 7.0 0.00 0.00 0.00 76 1014.5
20260507223505 67 239 3.0 7.0 0.00 0.00 0.00 76 1014.6
20260507222432 67 227 3.0 8.0 0.00 0.00 0.00 76 1014.5
20260507221914 67 215 3.0 8.0 0.00 0.00 0.00 75 1014.6
20260507221326 68 200 2.0 9.0 0.00 0.00 0.00 75 1014.7
20260507220316 67 263 3.0 9.0 0.00 0.00 0.00 77 1014.8
20260507215757 67 224 4.0 8.0 0.00 0.00 0.00 75 1014.9
20260507215218 67 216 4.0 8.0 0.00 0.00 0.00 75 1014.9
20260507214708 67 217 4.0 10.0 0.00 0.00 0.00 75 1015.0
20260507214138 68 227 3.0 10.0 0.00 0.00 0.00 74 1015.1
20260507213628 68 233 4.0 8.0 0.00 0.00 0.00 76 1015.2
20260507213104 68 268 4.0 9.0 0.00 0.00 0.00 76 1015.3
20260507212519 68 229 4.0 9.0 0.00 0.00 0.00 74 1015.2
20260507211430 68 261 4.0 9.0 0.00 0.00 0.00 74 1015.3
20260507210916 68 211 4.0 10.0 0.00 0.00 0.00 74 1015.3
20260507210336 68 210 4.0 10.0 0.00 0.00 0.00 74 1015.3
20260507205316 69 169 4.0 11.0 0.00 0.00 0.00 74 1015.4
20260507204805 69 217 3.0 7.0 0.00 0.00 0.00 73 1015.4
20260507204211 69 214 4.0 9.0 0.00 0.00 0.00 72 1015.5
20260507203149 69 298 3.0 8.0 0.00 0.00 0.00 74 1015.5
20260507202636 69 150 3.0 9.0 0.00 0.00 0.00 73 1015.5
20260507201520 69 215 3.0 9.0 0.00 0.00 0.00 74 1015.5
20260507201014 68 198 4.0 9.0 0.00 0.00 0.00 74 1015.4
20260507200512 68 234 4.0 8.0 0.00 0.00 0.00 75 1015.5
20260507195921 68 204 4.0 9.0 0.00 0.00 0.00 75 1015.5
20260507194908 68 292 3.0 10.0 0.00 0.00 0.00 75 1015.7
20260507194411 68 270 4.0 10.0 0.00 0.00 0.00 74 1015.6
20260507193817 68 216 3.0 9.0 0.00 0.00 0.00 73 1015.6
20260507193308 69 239 3.0 8.0 0.00 0.00 0.00 74 1015.7
20260507192751 68 224 3.0 8.0 0.00 0.00 0.00 74 1015.8
20260507192220 68 71 3.0 7.0 0.00 0.00 0.00 74 1015.9
20260507191713 67 229 3.0 10.0 0.00 0.00 0.00 74 1015.9
20260507191139 68 204 3.0 10.0 0.00 0.00 0.00 73 1015.9
20260507190631 68 183 2.0 8.0 0.00 0.00 0.00 74 1016.0
20260507190123 69 234 2.0 9.0 0.00 0.00 0.00 74 1016.1
20260507185019 68 219 3.0 9.0 0.00 0.00 0.00 74 1016.2
20260507184510 67 221 4.0 9.0 0.00 0.00 0.00 74 1016.2
20260507183950 68 202 3.0 8.0 0.00 0.00 0.00 73 1016.3
20260507182918 68 219 3.0 9.0 0.00 0.00 0.00 74 1016.3
20260507182411 68 213 3.0 9.0 0.00 0.00 0.00 74 1016.3
20260507181828 67 205 3.0 7.0 0.00 0.00 0.00 76 1016.3
20260507181322 67 216 3.0 7.0 0.00 0.00 0.00 75 1016.3
20260507180813 67 226 3.0 7.0 0.00 0.00 0.00 76 1016.3
20260507180255 66 231 3.0 7.0 0.00 0.00 0.00 76 1016.3
20260507175723 67 196 3.0 7.0 0.00 0.00 0.00 77 1016.3
20260507175211 66 180 2.0 7.0 0.00 0.00 0.00 77 1016.3
20260507174640 66 221 2.0 6.0 0.00 0.00 0.00 77 1016.4
20260507174101 66 212 3.0 6.0 0.00 0.00 0.00 78 1016.4
20260507173525 65 225 2.0 7.0 0.00 0.00 0.00 77 1016.5
20260507173013 66 238 2.0 6.0 0.00 0.00 0.00 78 1016.5
20260507172422 65 211 2.0 6.0 0.00 0.00 0.00 78 1016.4
20260507171917 65 190 2.0 7.0 0.00 0.00 0.00 79 1016.4
20260507171415 65 222 3.0 7.0 0.00 0.00 0.00 81 1016.5
20260507170900 64 218 3.0 6.0 0.00 0.00 0.00 80 1016.5
20260507170324 64 219 2.0 8.0 0.00 0.00 0.00 79 1016.5
20260507165813 64 227 2.0 8.0 0.00 0.00 0.00 81 1016.5
20260507164709 64 225 2.0 4.0 0.00 0.00 0.00 80 1016.5
20260507164144 64 226 2.0 6.0 0.00 0.00 0.00 81 1016.6
20260507163629 64 200 2.0 5.0 0.00 0.00 0.00 82 1016.6
20260507163024 64 226 2.0 3.0 0.00 0.00 0.00 82 1016.5
20260507162517 63 181 2.0 5.0 0.00 0.00 0.00 82 1016.5
20260507160918 63 272 1.0 4.0 0.00 0.00 0.00 83 1016.5
20260507160417 62 292 2.0 5.0 0.00 0.00 0.00 83 1016.5
20260507155911 62 231 2.0 6.0 0.00 0.00 0.00 84 1016.5
20260507155340 62 225 2.0 6.0 0.00 0.00 0.00 84 1016.6
20260507154817 62 232 2.0 5.0 0.00 0.00 0.00 84 1016.6
20260507154311 62 175 2.0 5.0 0.00 0.00 0.00 85 1016.6
20260507153807 61 208 1.0 4.0 0.00 0.00 0.00 84 1016.8
20260507153229 61 194 1.0 4.0 0.00 0.00 0.00 85 1016.8
20260507152711 61 183 2.0 4.0 0.00 0.00 0.00 85 1016.8
20260507152206 60 196 2.0 4.0 0.00 0.00 0.00 84 1016.8
20260507151642 60 186 1.0 4.0 0.00 0.00 0.00 84 1016.8
20260507151125 60 199 1.0 3.0 0.00 0.00 0.00 84 1016.8
20260507150517 60 195 1.0 3.0 0.00 0.00 0.00 85 1016.7
20260507150007 60 195 0.0 2.0 0.00 0.00 0.00 85 1016.6
20260507145502 60 217 0.0 2.0 0.00 0.00 0.00 85 1016.6
20260507144921 60 189 0.0 2.0 0.00 0.00 0.00 85 1016.5
20260507144403 60 189 0.0 2.0 0.00 0.00 0.00 86 1016.5
20260507143824 59 355 0.0 0.0 0.00 0.00 0.00 87 1016.5
20260507143315 58 355 0.0 0.0 0.00 0.00 0.00 88 1016.4
20260507142746 57 355 0.0 0.0 0.00 0.00 0.00 88 1016.4
20260507142217 57 355 0.0 0.0 0.00 0.00 0.00 88 1016.4
20260507141704 56 355 0.0 0.0 0.00 0.00 0.00 88 1016.3
20260507141135 56 355 0.0 0.0 0.00 0.00 0.00 88 1016.2
20260507140545 56 355 0.0 0.0 0.00 0.00 0.00 88 1016.2
20260507140017 56 355 0.0 0.0 0.00 0.00 0.00 87 1016.2
20260507135514 55 355 0.0 0.0 0.00 0.00 0.00 87 1016.1
20260507135019 55 355 0.0 0.0 0.00 0.00 0.00 87 1016.1
20260507134516 55 355 0.0 0.0 0.00 0.00 0.00 87 1016.0
20260507133939 55 355 0.0 0.0 0.00 0.00 0.00 87 1015.9
20260507133423 54 355 0.0 0.0 0.00 0.00 0.00 87 1015.8
20260507132914 54 355 0.0 0.0 0.00 0.00 0.00 87 1015.8
20260507132408 54 355 0.0 0.0 0.00 0.00 0.00 86 1015.7
20260507131823 55 355 0.0 0.0 0.00 0.00 0.00 86 1015.7
20260507131315 55 355 0.0 0.0 0.00 0.00 0.00 86 1015.7
20260507125704 55 355 0.0 0.0 0.00 0.00 0.00 86 1015.7
20260507125136 55 355 0.0 0.0 0.00 0.00 0.00 86 1015.6
20260507124631 55 355 0.0 0.0 0.00 0.00 0.00 86 1015.6
20260507124124 55 355 0.0 0.0 0.00 0.00 0.00 86 1015.6
20260507123612 55 355 0.0 0.0 0.00 0.00 0.00 86 1015.6
20260507122522 55 355 0.0 0.0 0.00 0.00 0.00 86 1015.6
20260507121939 56 355 0.0 0.0 0.00 0.00 0.00 86 1015.6
20260507121422 56 355 0.0 0.0 0.00 0.00 0.00 86 1015.6
20260507120913 56 355 0.0 0.0 0.00 0.00 0.00 86 1015.6
20260507120411 56 355 0.0 0.0 0.00 0.00 0.00 86 1015.6
20260507115824 56 355 0.0 0.0 0.00 0.00 0.00 86 1015.6
20260507115319 56 355 0.0 0.0 0.00 0.00 0.00 86 1015.6
20260507114815 56 355 0.0 0.0 0.00 0.00 0.00 85 1015.6
20260507114311 56 355 0.0 0.0 0.00 0.00 0.00 85 1015.6
20260507113210 56 355 0.0 0.0 0.00 0.00 0.00 85 1015.6
20260507112706 56 355 0.0 0.0 0.00 0.00 0.00 85 1015.7
20260507112143 56 355 0.0 0.0 0.00 0.00 0.00 85 1015.7
20260507111632 56 355 0.0 0.0 0.00 0.00 0.00 85 1015.8
20260507111025 56 355 0.0 0.0 0.00 0.00 0.00 84 1015.8
20260507110522 56 355 0.0 0.0 0.00 0.00 0.00 84 1015.8
20260507110009 56 355 0.0 0.0 0.00 0.00 0.00 84 1015.9
20260507105457 56 355 0.0 0.0 0.00 0.00 0.00 84 1016.0
20260507104916 56 355 0.0 0.0 0.00 0.00 0.00 84 1016.0
20260507104420 57 355 0.0 0.0 0.00 0.00 0.00 84 1015.9
20260507103919 57 355 0.0 0.0 0.00 0.00 0.00 84 1016.0
20260507102902 57 355 0.0 0.0 0.00 0.00 0.00 83 1015.9
20260507102322 57 355 0.0 0.0 0.00 0.00 0.00 83 1016.0
20260507101818 57 355 0.0 0.0 0.00 0.00 0.00 83 1016.0
20260507101310 57 355 0.0 0.0 0.00 0.00 0.00 83 1015.9
20260507100225 57 355 0.0 0.0 0.00 0.00 0.00 82 1015.9
20260507095712 57 355 0.0 0.0 0.00 0.00 0.00 82 1016.0
20260507094636 58 355 0.0 0.0 0.00 0.00 0.00 82 1016.0
20260507094136 58 355 0.0 0.0 0.00 0.00 0.00 82 1016.1
20260507093630 58 355 0.0 0.0 0.00 0.00 0.00 82 1016.1
20260507093102 58 355 0.0 0.0 0.00 0.00 0.00 82 1016.2
20260507092519 58 355 0.0 0.0 0.00 0.00 0.00 82 1016.2
20260507092006 58 355 0.0 0.0 0.00 0.00 0.00 81 1016.2
20260507090915 58 355 0.0 0.0 0.00 0.00 0.00 81 1016.4
20260507090352 58 355 0.0 0.0 0.00 0.00 0.00 81 1016.5
20260507085316 58 355 0.0 0.0 0.00 0.00 0.00 81 1016.5
20260507084809 58 355 0.0 0.0 0.00 0.00 0.00 80 1016.8
20260507083720 58 355 0.0 0.0 0.00 0.00 0.00 80 1016.8
20260507083210 58 355 0.0 0.0 0.00 0.00 0.00 80 1016.7
20260507082642 58 355 0.0 0.0 0.00 0.00 0.00 79 1016.9
20260507082056 59 355 0.0 0.0 0.00 0.00 0.00 79 1016.9
20260507081532 59 355 0.0 0.0 0.00 0.00 0.00 79 1017.0
20260507081018 59 355 0.0 0.0 0.00 0.00 0.00 79 1017.0
20260507080510 59 355 0.0 0.0 0.00 0.00 0.00 79 1017.1
20260507075418 59 355 0.0 0.0 0.00 0.00 0.00 78 1017.0
20260507074916 59 355 0.0 0.0 0.00 0.00 0.00 78 1017.0
20260507074414 60 355 0.0 0.0 0.00 0.00 0.00 78 1016.9
20260507073906 60 355 0.0 0.0 0.00 0.00 0.00 78 1016.9
20260507073345 60 355 0.0 0.0 0.00 0.00 0.00 78 1016.9
20260507072815 60 355 0.0 0.0 0.00 0.00 0.00 78 1016.9
20260507072257 60 355 0.0 0.0 0.00 0.00 0.00 78 1016.9
20260507071717 60 355 0.0 0.0 0.00 0.00 0.00 78 1017.0
20260507071206 60 355 0.0 1.0 0.00 0.00 0.00 78 1017.0
20260507070641 60 355 0.0 1.0 0.00 0.00 0.00 78 1017.0
20260507070126 61 355 0.0 1.0 0.00 0.00 0.00 77 1017.1
20260507065618 61 355 0.0 1.0 0.00 0.00 0.00 77 1017.0
20260507065015 61 355 0.0 2.0 0.00 0.00 0.00 77 1017.1
20260507064431 61 346 0.0 1.0 0.00 0.00 0.00 77 1017.0
20260507063911 61 351 0.0 1.0 0.00 0.00 0.00 77 1017.1
20260507063407 61 351 0.0 0.0 0.00 0.00 0.00 76 1017.2
20260507062823 61 351 0.0 1.0 0.00 0.00 0.00 76 1017.2
20260507062318 61 351 0.0 1.0 0.00 0.00 0.00 76 1017.1
20260507061217 61 323 0.0 1.0 0.00 0.00 0.00 75 1017.2
20260507060700 61 298 0.0 1.0 0.00 0.00 0.00 75 1017.2
20260507060143 61 9 0.0 0.0 0.00 0.00 0.00 75 1017.3
20260507055631 61 9 0.0 0.0 0.00 0.00 0.00 75 1017.2
20260507055055 61 9 0.0 0.0 0.00 0.00 0.00 75 1017.2
20260507054013 61 9 0.0 0.0 0.00 0.00 0.00 75 1017.2
20260507053507 61 9 0.0 0.0 0.00 0.00 0.00 75 1017.1
20260507053006 61 9 0.0 0.0 0.00 0.00 0.00 74 1017.1
20260507052505 61 9 0.0 0.0 0.00 0.00 0.00 74 1017.0
20260507051941 61 9 0.0 0.0 0.00 0.00 0.00 74 1017.0
20260507051417 61 9 0.0 0.0 0.00 0.00 0.00 74 1017.1
20260507050911 62 9 0.0 0.0 0.00 0.00 0.00 74 1017.1
20260507050409 62 9 0.0 0.0 0.00 0.00 0.00 74 1017.1
20260507045308 62 9 0.0 0.0 0.00 0.00 0.00 74 1017.0
20260507044219 62 9 0.0 2.0 0.00 0.00 0.00 74 1017.0